Regional Weather Roundup
Issued by NWS Jackson, KY

Home | Current Version | Previous Version | Graphics & Text | Print | Product List | Glossary On
Versions: 1 2 3 4 5 6 7 8 9 10 11 12 13 14 15 16 17 18 19 20 21 22 23 24 25 26 27 28 29 30 31 32 33 34 35 36 37 38 39 40 41 42 43 44 45 46 47 48 49 50
000
ASUS43 KJKL 030310
RWRJKL

EAST KENTUCKY HOURLY WEATHER ROUNDUP
NATIONAL WEATHER SERVICE JACKSON KY
1100 PM EDT WED SEP 02 2015

NOTE: "FAIR" INDICATES FEW OR NO CLOUDS BELOW 12,000 FEET WITH
NO SIGNIFICANT WEATHER AND/OR OBSTRUCTIONS TO VISIBILITY.

* THESE REPORTS ARE NOT UNDER NWS QUALITY CONTROL AND MAY NOT
  REPORT WEATHER SUCH AS PRECIPITATION AND FOG.

KYZ079-080-083-085-087-088-110-112-115-119-120-030400
...EASTERN KENTUCKY...

CITY           SKY/WX    TMP DP  RH WIND       PRES   REMARKS
JACKSON        CLEAR     75  65  70 CALM      30.08R
LONDON         CLEAR     73  65  75 CALM      30.07S
SOMERSET*        N/A     70  68  94 CALM      30.06S
MONTICELLO*    PTCLDY    68  68 100 CALM      30.08S
MIDDLESBORO*   MOCLDY    70  67  92 CALM      30.09R
HARLAN APT*      N/A     68  68 100 MISG      30.10S
HAZARD APT*    CLEAR     72  70  94 CALM      30.08R
BLACK MTN*       N/A     66  63  88 VRB7        N/A
PIKEVILLE APT* CLEAR     72  66  83 SW5       30.09S
BIG SANDY*     CLEAR     70  69  96 CALM      30.08S
MOREHEAD APT*  PTCLDY    72  66  83 CALM      30.08S
$$

KYZ035-036-041-042-044-050-067-078-099-030400
...CENTRAL KENTUCKY...

CITY           SKY/WX    TMP DP  RH WIND       PRES   REMARKS
MT STERLING*   CLEAR     72  70  94 NE5       30.08R
FLEMING/MASON* PTCLDY    73  68  83 CALM      30.07S
DANVILLE*      CLEAR     70  68  94 CALM      30.07S
RICHMOND*      CLEAR     73  66  78 CALM      30.06R
LEXINGTON      CLEAR     75  67  76 CALM      30.06R
FRANKFORT      CLEAR     73  66  78 N3        30.04S
$$

KYZ091>093-OHZ055-061-077-WVZ005-015-034-035-042-030400
...SOUTHERN OHIO/WEST VIRGINIA...

CITY           SKY/WX    TMP DP  RH WIND       PRES   REMARKS
COVINGTON      PTCLDY    73  67  81 CALM      30.05S
COLUMBUS       CLOUDY    73  67  81 NW5       30.03F
DAYTON         PTCLDY    75  69  81 SW6       30.05F
WILMINGTON     PTCLDY    68  64  87 SW6       30.05F
HUNTINGTON     CLEAR     71  69  93 CALM      30.05R
CHARLESTON     PTCLDY    71  68  90 CALM      30.05R
PINEVILLE*     CLEAR     67  67 100 MISG      30.16R FOG
BECKLEY        CLEAR     68  62  81 CALM      30.13S
BLUEFIELD      PTCLDY    71  61  70 CALM      30.16R
$$

VAZ002-007-008-TNZ017-027-036-066-071-030400
...SOUTHWEST VIRGINIA/EAST TENNESSEE...

CITY           SKY/WX    TMP DP  RH WIND       PRES   REMARKS
WISE*          PTCLDY    72  59  64 CALM      30.17S
JONESVILLE*    PTCLDY    68  64  88 CALM      30.11R
ABINGDON*      CLEAR     70  62  76 CALM      30.11S
BRISTOL        PTCLDY    70  66  87 CALM      30.08R
KNOXVILLE      CLOUDY    78  69  73 CALM      30.04S
OAK RIDGE      CLOUDY    75  72  90 CALM      30.06S
CROSSVILLE     CLOUDY    73  68  84 CALM      30.11S
NASHVILLE      MOCLDY    82  68  62 E3        30.03R
$$

...KEY TO REMARKS...
VSB - VISIBILITY IN MILES
WCI - WIND CHILL INDEX
HX  - HEAT INDEX

$$



USA.gov is the U.S. government's official web portal to all federal, state and local government web resources and services.